Volver al catálogo

THOR ABLESTAR DEB

ActivoPO
NORAD 745·DEBRIS·🇺🇸 United States

Lanzado Sep 28, 1963 desde Vandenberg Space Force Base

Loading…

Próximos Pases (próximas 24 horas)

TLE

ActualizadoSource: Space-Track

Época: Sep 14, 2026, 05:04 UTC

1 00745U 63038E   26257.21174593  .00000168  00000-0  22699-3 0  9996
2 00745  89.9874 335.9806 0018665  40.0747 347.3205 13.55632988103496

Sigue THOR ABLESTAR DEB en tiempo real con AllMySat

Download on the App Store